ABS-2

Last updated on Thu Aug 13 2026 00:02:59 GMT+0000 (Coordinated Universal Time)

1 39508U 14006A 26224.62127959 .00000000 00000+0 00000+0 0 9991 2 39508 0.0279 102.1518 0002881 32.4787 125.0347 1.00269917 45841
UTC large
Height (km)
Speed (km/s)
/
Latitude / Longitude
Inclination (degrees)
Orbital Period (minutes)
Azimuth
Elevation
Range (km)
Doppler Factor

Next 0 passes for location: London (51.5072 / 0.1276)

No passes found over London.
ABS-2